Date_Time,Julian_Date,Latitude,Longitude,Instrument_Depth,U,V,Speed,Direction
(yyyy-mm-dd hh:mn:ss UTC),(JD),(+ deg. North),(+ deg. East),(m),(cm/s),(cm/s),(cm/s),(deg True)
1981-09-29 23:30:00 UTC,2444877.479167,29.6650,-93.4789,0073,2.82,-1.03,3.0000,110.0000
1981-09-30 00:00:00 UTC,2444877.500000,29.6650,-93.4789,0073,5.00,0.17,5.0000,88.0000
1981-09-30 00:30:00 UTC,2444877.520833,29.6650,-93.4789,0073,6.96,0.73,7.0000,84.0000
1981-09-30 01:00:00 UTC,2444877.541667,29.6650,-93.4789,0073,7.83,1.66,8.0000,78.0000
1981-09-30 01:30:00 UTC,2444877.562500,29.6650,-93.4789,0073,8.65,2.48,9.0000,74.0000
1981-09-30 02:00:00 UTC,2444877.583333,29.6650,-93.4789,0073,9.66,2.59,10.0000,75.0000
1981-09-30 02:30:00 UTC,2444877.604167,29.6650,-93.4789,0073,10.57,3.03,11.0000,74.0000
1981-09-30 03:00:00 UTC,2444877.625000,29.6650,-93.4789,0073,11.41,3.71,12.0000,72.0000
1981-09-30 03:30:00 UTC,2444877.645833,29.6650,-93.4789,0073,12.22,4.45,13.0000,70.0000
1981-09-30 04:00:00 UTC,2444877.666667,29.6650,-93.4789,0073,12.14,4.66,13.0000,69.0000
1981-09-30 04:30:00 UTC,2444877.687500,29.6650,-93.4789,0073,11.48,6.10,13.0000,62.0000
1981-09-30 05:00:00 UTC,2444877.708333,29.6650,-93.4789,0073,8.67,6.77,11.0000,52.0000
1981-09-30 05:30:00 UTC,2444877.729167,29.6650,-93.4789,0073,9.23,5.99,11.0000,57.0000
1981-09-30 06:00:00 UTC,2444877.750000,29.6650,-93.4789,0073,12.22,4.45,13.0000,70.0000
1981-09-30 06:30:00 UTC,2444877.770833,29.6650,-93.4789,0073,12.43,3.80,13.0000,73.0000
1981-09-30 07:00:00 UTC,2444877.791667,29.6650,-93.4789,0073,13.58,3.39,14.0000,76.0000
1981-09-30 07:30:00 UTC,2444877.812500,29.6650,-93.4789,0073,13.83,2.19,14.0000,81.0000
1981-09-30 08:00:00 UTC,2444877.833333,29.6650,-93.4789,0073,10.96,0.96,11.0000,85.0000
1981-09-30 08:30:00 UTC,2444877.854167,29.6650,-93.4789,0073,8.98,-0.63,9.0000,94.0000
1981-09-30 09:00:00 UTC,2444877.875000,29.6650,-93.4789,0073,6.66,-2.16,7.0000,108.0000
1981-09-30 09:30:00 UTC,2444877.895833,29.6650,-93.4789,0073,6.49,-2.62,7.0000,112.0000
1981-09-30 10:00:00 UTC,2444877.916667,29.6650,-93.4789,0073,6.62,-2.28,7.0000,109.0000
1981-09-30 10:30:00 UTC,2444877.937500,29.6650,-93.4789,0073,7.61,-2.47,8.0000,108.0000
1981-09-30 11:00:00 UTC,2444877.958333,29.6650,-93.4789,0073,10.27,-3.94,11.0000,111.0000
1981-09-30 11:30:00 UTC,2444877.979167,29.6650,-93.4789,0073,11.68,-5.70,13.0000,116.0000
1981-09-30 12:00:00 UTC,2444878.000000,29.6650,-93.4789,0073,10.50,-5.82,12.0000,119.0000
1981-09-30 12:30:00 UTC,2444878.020833,29.6650,-93.4789,0073,8.91,-4.54,10.0000,117.0000
1981-09-30 13:00:00 UTC,2444878.041667,29.6650,-93.4789,0073,7.31,-3.25,8.0000,114.0000
1981-09-30 13:30:00 UTC,2444878.062500,29.6650,-93.4789,0073,6.62,-2.28,7.0000,109.0000
1981-09-30 14:00:00 UTC,2444878.083333,29.6650,-93.4789,0073,5.99,-0.42,6.0000,94.0000
1981-09-30 14:30:00 UTC,2444878.104167,29.6650,-93.4789,0073,6.91,1.10,7.0000,81.0000
1981-09-30 15:00:00 UTC,2444878.125000,29.6650,-93.4789,0073,8.97,0.78,9.0000,85.0000
1981-09-30 15:30:00 UTC,2444878.145833,29.6650,-93.4789,0073,10.97,-0.77,11.0000,94.0000
1981-09-30 16:00:00 UTC,2444878.166667,29.6650,-93.4789,0073,12.80,-2.26,13.0000,100.0000
1981-09-30 16:30:00 UTC,2444878.187500,29.6650,-93.4789,0073,14.34,-4.39,15.0000,107.0000
1981-09-30 17:00:00 UTC,2444878.208333,29.6650,-93.4789,0073,14.94,-5.73,16.0000,111.0000
1981-09-30 17:30:00 UTC,2444878.229167,29.6650,-93.4789,0073,15.76,-6.37,17.0000,112.0000
1981-09-30 18:00:00 UTC,2444878.250000,29.6650,-93.4789,0073,16.57,-7.03,18.0000,113.0000
1981-09-30 18:30:00 UTC,2444878.270833,29.6650,-93.4789,0073,16.18,-7.89,18.0000,116.0000
1981-09-30 19:00:00 UTC,2444878.291667,29.6650,-93.4789,0073,15.43,-9.27,18.0000,121.0000
1981-09-30 19:30:00 UTC,2444878.312500,29.6650,-93.4789,0073,13.58,-10.23,17.0000,127.0000
1981-09-30 20:00:00 UTC,2444878.333333,29.6650,-93.4789,0073,12.43,-11.59,17.0000,133.0000
1981-09-30 20:30:00 UTC,2444878.354167,29.6650,-93.4789,0073,10.70,-13.21,17.0000,141.0000
1981-09-30 21:00:00 UTC,2444878.375000,29.6650,-93.4789,0073,9.54,-15.26,18.0000,148.0000
1981-09-30 21:30:00 UTC,2444878.395833,29.6650,-93.4789,0073,7.26,-14.26,16.0000,153.0000
1981-09-30 22:00:00 UTC,2444878.416667,29.6650,-93.4789,0073,4.47,-10.05,11.0000,156.0000
1981-09-30 22:30:00 UTC,2444878.437500,29.6650,-93.4789,0073,2.74,-6.44,7.0000,157.0000
1981-09-30 23:00:00 UTC,2444878.458333,29.6650,-93.4789,0073,3.38,-7.25,8.0000,155.0000
1981-09-30 23:30:00 UTC,2444878.479167,29.6650,-93.4789,0073,6.18,-10.29,12.0000,149.0000
1981-10-01 00:00:00 UTC,2444878.500000,29.6650,-93.4789,0073,9.23,-11.82,15.0000,142.0000
1981-10-01 00:30:00 UTC,2444878.520833,29.6650,-93.4789,0073,10.70,-13.21,17.0000,141.0000
1981-10-01 01:00:00 UTC,2444878.541667,29.6650,-93.4789,0073,10.07,-14.92,18.0000,146.0000
1981-10-01 01:30:00 UTC,2444878.562500,29.6650,-93.4789,0073,8.45,-15.89,18.0000,152.0000
1981-10-01 02:00:00 UTC,2444878.583333,29.6650,-93.4789,0073,5.25,-16.17,17.0000,162.0000
1981-10-01 02:30:00 UTC,2444878.604167,29.6650,-93.4789,0073,0.59,-16.99,17.0000,178.0000
1981-10-01 03:00:00 UTC,2444878.625000,29.6650,-93.4789,0073,-4.11,-16.50,17.0000,194.0000
1981-10-01 03:30:00 UTC,2444878.645833,29.6650,-93.4789,0073,-9.84,-11.32,15.0000,221.0000
1981-10-01 04:00:00 UTC,2444878.666667,29.6650,-93.4789,0073,-17.12,-5.56,18.0000,252.0000
1981-10-01 04:30:00 UTC,2444878.687500,29.6650,-93.4789,0073,-24.00,-0.00,24.0000,270.0000
1981-10-01 05:00:00 UTC,2444878.708333,29.6650,-93.4789,0073,-26.80,3.29,27.0000,277.0000
1981-10-01 05:30:00 UTC,2444878.729167,29.6650,-93.4789,0073,-26.50,5.15,27.0000,281.0000
1981-10-01 06:00:00 UTC,2444878.750000,29.6650,-93.4789,0073,-24.99,7.17,26.0000,286.0000
1981-10-01 06:30:00 UTC,2444878.770833,29.6650,-93.4789,0073,-22.83,7.42,24.0000,288.0000
1981-10-01 07:00:00 UTC,2444878.791667,29.6650,-93.4789,0073,-22.11,6.34,23.0000,286.0000
1981-10-01 07:30:00 UTC,2444878.812500,29.6650,-93.4789,0073,-23.38,5.40,24.0000,283.0000
1981-10-01 08:00:00 UTC,2444878.833333,29.6650,-93.4789,0073,-23.87,2.51,24.0000,276.0000
1981-10-01 08:30:00 UTC,2444878.854167,29.6650,-93.4789,0073,-23.00,0.40,23.0000,271.0000
1981-10-01 09:00:00 UTC,2444878.875000,29.6650,-93.4789,0073,-23.00,-0.40,23.0000,269.0000
1981-10-01 09:30:00 UTC,2444878.895833,29.6650,-93.4789,0073,-21.97,-1.15,22.0000,267.0000
1981-10-01 10:00:00 UTC,2444878.916667,29.6650,-93.4789,0073,-20.84,-2.56,21.0000,263.0000
1981-10-01 10:30:00 UTC,2444878.937500,29.6650,-93.4789,0073,-19.81,-2.78,20.0000,262.0000
1981-10-01 11:00:00 UTC,2444878.958333,29.6650,-93.4789,0073,-17.96,-1.26,18.0000,266.0000
1981-10-01 11:30:00 UTC,2444878.979167,29.6650,-93.4789,0073,-17.00,0.30,17.0000,271.0000
1981-10-01 12:00:00 UTC,2444879.000000,29.6650,-93.4789,0073,-14.96,1.05,15.0000,274.0000
1981-10-01 12:30:00 UTC,2444879.020833,29.6650,-93.4789,0073,-13.90,1.71,14.0000,277.0000
1981-10-01 13:00:00 UTC,2444879.041667,29.6650,-93.4789,0073,-12.76,2.48,13.0000,281.0000
1981-10-01 13:30:00 UTC,2444879.062500,29.6650,-93.4789,0073,-11.82,2.08,12.0000,280.0000
1981-10-01 14:00:00 UTC,2444879.083333,29.6650,-93.4789,0073,-9.96,0.87,10.0000,275.0000
1981-10-01 14:30:00 UTC,2444879.104167,29.6650,-93.4789,0073,-8.93,-1.10,9.0000,263.0000
1981-10-01 15:00:00 UTC,2444879.125000,29.6650,-93.4789,0073,-9.27,-3.75,10.0000,248.0000
1981-10-01 15:30:00 UTC,2444879.145833,29.6650,-93.4789,0073,-10.29,-6.18,12.0000,239.0000
1981-10-01 16:00:00 UTC,2444879.166667,29.6650,-93.4789,0073,-11.61,-7.83,14.0000,236.0000
1981-10-01 16:30:00 UTC,2444879.187500,29.6650,-93.4789,0073,-12.58,-8.17,15.0000,237.0000
1981-10-01 17:00:00 UTC,2444879.208333,29.6650,-93.4789,0073,-12.12,-7.00,14.0000,240.0000
1981-10-01 17:30:00 UTC,2444879.229167,29.6650,-93.4789,0073,-12.89,-5.47,14.0000,247.0000
1981-10-01 18:00:00 UTC,2444879.250000,29.6650,-93.4789,0073,-15.45,-4.14,16.0000,255.0000
1981-10-01 18:30:00 UTC,2444879.270833,29.6650,-93.4789,0073,-15.71,-3.05,16.0000,259.0000
1981-10-01 19:00:00 UTC,2444879.291667,29.6650,-93.4789,0073,-14.85,-2.09,15.0000,262.0000
1981-10-01 19:30:00 UTC,2444879.312500,29.6650,-93.4789,0073,-12.84,-2.03,13.0000,261.0000
1981-10-01 20:00:00 UTC,2444879.333333,29.6650,-93.4789,0073,-12.84,-2.03,13.0000,261.0000
1981-10-01 20:30:00 UTC,2444879.354167,29.6650,-93.4789,0073,-14.98,-0.79,15.0000,267.0000
1981-10-01 21:00:00 UTC,2444879.375000,29.6650,-93.4789,0073,-14.85,2.09,15.0000,278.0000
1981-10-01 21:30:00 UTC,2444879.395833,29.6650,-93.4789,0073,-11.41,3.71,12.0000,288.0000
1981-10-01 22:00:00 UTC,2444879.416667,29.6650,-93.4789,0073,-8.34,3.37,9.0000,292.0000
1981-10-01 22:30:00 UTC,2444879.437500,29.6650,-93.4789,0073,-5.67,1.95,6.0000,289.0000
1981-10-01 23:00:00 UTC,2444879.458333,29.6650,-93.4789,0073,-2.95,0.52,3.0000,280.0000
1981-10-01 23:30:00 UTC,2444879.479167,29.6650,-93.4789,0073,-1.71,1.03,2.0000,301.0000
1981-10-02 00:00:00 UTC,2444879.500000,29.6650,-93.4789,0073,-0.42,1.96,2.0000,348.0000
1981-10-02 00:30:00 UTC,2444879.520833,29.6650,-93.4789,0073,0.58,1.91,2.0000,17.0000
1981-10-02 01:00:00 UTC,2444879.541667,29.6650,-93.4789,0073,1.29,1.53,2.0000,40.0000
1981-10-02 01:30:00 UTC,2444879.562500,29.6650,-93.4789,0073,0.54,0.84,1.0000,33.0000
1981-10-02 02:00:00 UTC,2444879.583333,29.6650,-93.4789,0073,-0.36,0.93,1.0000,339.0000
1981-10-02 02:30:00 UTC,2444879.604167,29.6650,-93.4789,0073,-1.26,1.55,2.0000,321.0000
1981-10-02 03:00:00 UTC,2444879.625000,29.6650,-93.4789,0073,-0.28,1.98,2.0000,352.0000
1981-10-02 03:30:00 UTC,2444879.645833,29.6650,-93.4789,0073,0.93,2.85,3.0000,18.0000
1981-10-02 04:00:00 UTC,2444879.666667,29.6650,-93.4789,0073,1.43,3.73,4.0000,21.0000
1981-10-02 04:30:00 UTC,2444879.687500,29.6650,-93.4789,0073,2.35,3.24,4.0000,36.0000
1981-10-02 05:00:00 UTC,2444879.708333,29.6650,-93.4789,0073,4.46,2.27,5.0000,63.0000
1981-10-02 05:30:00 UTC,2444879.729167,29.6650,-93.4789,0073,6.82,1.57,7.0000,77.0000
1981-10-02 06:00:00 UTC,2444879.750000,29.6650,-93.4789,0073,6.79,1.69,7.0000,76.0000
1981-10-02 06:30:00 UTC,2444879.770833,29.6650,-93.4789,0073,4.67,1.79,5.0000,69.0000
1981-10-02 07:00:00 UTC,2444879.791667,29.6650,-93.4789,0073,2.67,1.36,3.0000,63.0000
1981-10-02 07:30:00 UTC,2444879.812500,29.6650,-93.4789,0073,1.53,1.29,2.0000,50.0000
1981-10-02 08:00:00 UTC,2444879.833333,29.6650,-93.4789,0073,0.26,0.97,1.0000,15.0000
1981-10-02 08:30:00 UTC,2444879.854167,29.6650,-93.4789,0073,-0.57,0.82,1.0000,325.0000
1981-10-02 09:00:00 UTC,2444879.875000,29.6650,-93.4789,0073,-2.00,-0.07,2.0000,268.0000
1981-10-02 09:30:00 UTC,2444879.895833,29.6650,-93.4789,0073,-2.90,-0.78,3.0000,255.0000
1981-10-02 10:00:00 UTC,2444879.916667,29.6650,-93.4789,0073,-2.65,-1.41,3.0000,242.0000
1981-10-02 10:30:00 UTC,2444879.937500,29.6650,-93.4789,0073,-2.23,-2.01,3.0000,228.0000
1981-10-02 11:00:00 UTC,2444879.958333,29.6650,-93.4789,0073,-3.15,-2.46,4.0000,232.0000
1981-10-02 11:30:00 UTC,2444879.979167,29.6650,-93.4789,0073,-6.49,-2.62,7.0000,248.0000
1981-10-02 12:00:00 UTC,2444880.000000,29.6650,-93.4789,0073,-11.95,-1.05,12.0000,265.0000
1981-10-02 12:30:00 UTC,2444880.020833,29.6650,-93.4789,0073,-12.93,1.36,13.0000,276.0000
1981-10-02 13:00:00 UTC,2444880.041667,29.6650,-93.4789,0073,-8.77,2.02,9.0000,283.0000
1981-10-02 13:30:00 UTC,2444880.062500,29.6650,-93.4789,0073,-6.95,0.85,7.0000,277.0000
1981-10-02 14:00:00 UTC,2444880.083333,29.6650,-93.4789,0073,-8.00,-0.28,8.0000,268.0000
1981-10-02 14:30:00 UTC,2444880.104167,29.6650,-93.4789,0073,-7.96,-0.84,8.0000,264.0000
1981-10-02 15:00:00 UTC,2444880.125000,29.6650,-93.4789,0073,-6.99,0.37,7.0000,273.0000
1981-10-02 15:30:00 UTC,2444880.145833,29.6650,-93.4789,0073,-5.25,2.91,6.0000,299.0000
1981-10-02 16:00:00 UTC,2444880.166667,29.6650,-93.4789,0073,-3.61,4.79,6.0000,323.0000
1981-10-02 16:30:00 UTC,2444880.187500,29.6650,-93.4789,0073,-1.95,4.60,5.0000,337.0000
1981-10-02 17:00:00 UTC,2444880.208333,29.6650,-93.4789,0073,-0.93,2.85,3.0000,342.0000
1981-10-02 17:30:00 UTC,2444880.229167,29.6650,-93.4789,0073,-0.78,2.90,3.0000,345.0000
1981-10-02 18:00:00 UTC,2444880.250000,29.6650,-93.4789,0073,0.00,0.00,0.0000,0.0000
1981-10-02 18:30:00 UTC,2444880.270833,29.6650,-93.4789,0073,1.50,3.71,4.0000,22.0000
1981-10-02 19:00:00 UTC,2444880.291667,29.6650,-93.4789,0073,3.00,5.20,6.0000,30.0000
1981-10-02 19:30:00 UTC,2444880.312500,29.6650,-93.4789,0073,3.86,4.60,6.0000,40.0000
1981-10-02 20:00:00 UTC,2444880.333333,29.6650,-93.4789,0073,4.57,2.03,5.0000,66.0000
1981-10-02 20:30:00 UTC,2444880.354167,29.6650,-93.4789,0073,3.98,-0.35,4.0000,95.0000
1981-10-02 21:00:00 UTC,2444880.375000,29.6650,-93.4789,0073,2.76,-1.17,3.0000,113.0000
1981-10-02 21:30:00 UTC,2444880.395833,29.6650,-93.4789,0073,1.66,-1.12,2.0000,124.0000
1981-10-02 22:00:00 UTC,2444880.416667,29.6650,-93.4789,0073,0.31,-1.98,2.0000,171.0000
1981-10-02 22:30:00 UTC,2444880.437500,29.6650,-93.4789,0073,-1.50,-3.71,4.0000,202.0000
1981-10-02 23:00:00 UTC,2444880.458333,29.6650,-93.4789,0073,-4.24,-6.78,8.0000,212.0000
1981-10-02 23:30:00 UTC,2444880.479167,29.6650,-93.4789,0073,-6.02,-7.99,10.0000,217.0000
1981-10-03 00:00:00 UTC,2444880.500000,29.6650,-93.4789,0073,-6.02,-7.99,10.0000,217.0000
1981-10-03 00:30:00 UTC,2444880.520833,29.6650,-93.4789,0073,-5.83,-9.33,11.0000,212.0000
1981-10-03 01:00:00 UTC,2444880.541667,29.6650,-93.4789,0073,-5.70,-11.68,13.0000,206.0000
1981-10-03 01:30:00 UTC,2444880.562500,29.6650,-93.4789,0073,-5.47,-12.89,14.0000,203.0000
1981-10-03 02:00:00 UTC,2444880.583333,29.6650,-93.4789,0073,-5.99,-14.83,16.0000,202.0000
1981-10-03 02:30:00 UTC,2444880.604167,29.6650,-93.4789,0073,-4.56,-13.24,14.0000,199.0000
1981-10-03 03:00:00 UTC,2444880.625000,29.6650,-93.4789,0073,-2.29,-10.76,11.0000,192.0000
1981-10-03 03:30:00 UTC,2444880.645833,29.6650,-93.4789,0073,-0.58,-10.98,11.0000,183.0000
1981-10-03 04:00:00 UTC,2444880.666667,29.6650,-93.4789,0073,1.25,-11.93,12.0000,174.0000
1981-10-03 04:30:00 UTC,2444880.687500,29.6650,-93.4789,0073,3.03,-10.57,11.0000,164.0000
1981-10-03 05:00:00 UTC,2444880.708333,29.6650,-93.4789,0073,4.54,-8.91,10.0000,153.0000
1981-10-03 05:30:00 UTC,2444880.729167,29.6650,-93.4789,0073,5.30,-8.48,10.0000,148.0000
1981-10-03 06:00:00 UTC,2444880.750000,29.6650,-93.4789,0073,4.38,-8.99,10.0000,154.0000
1981-10-03 06:30:00 UTC,2444880.770833,29.6650,-93.4789,0073,3.31,-11.54,12.0000,164.0000
1981-10-03 07:00:00 UTC,2444880.791667,29.6650,-93.4789,0073,3.12,-14.67,15.0000,168.0000
1981-10-03 07:30:00 UTC,2444880.812500,29.6650,-93.4789,0073,2.82,-17.78,18.0000,171.0000
1981-10-03 08:00:00 UTC,2444880.833333,29.6650,-93.4789,0073,2.64,-18.82,19.0000,172.0000
1981-10-03 08:30:00 UTC,2444880.854167,29.6650,-93.4789,0073,3.24,-16.69,17.0000,169.0000
1981-10-03 09:00:00 UTC,2444880.875000,29.6650,-93.4789,0073,3.37,-14.62,15.0000,167.0000
1981-10-03 09:30:00 UTC,2444880.895833,29.6650,-93.4789,0073,2.29,-11.78,12.0000,169.0000
1981-10-03 10:00:00 UTC,2444880.916667,29.6650,-93.4789,0073,1.72,-10.86,11.0000,171.0000
1981-10-03 10:30:00 UTC,2444880.937500,29.6650,-93.4789,0073,1.88,-11.85,12.0000,171.0000
1981-10-03 11:00:00 UTC,2444880.958333,29.6650,-93.4789,0073,0.68,-12.98,13.0000,177.0000
1981-10-03 11:30:00 UTC,2444880.979167,29.6650,-93.4789,0073,-1.46,-13.92,14.0000,186.0000
1981-10-03 12:00:00 UTC,2444881.000000,29.6650,-93.4789,0073,-3.12,-14.67,15.0000,192.0000
1981-10-03 12:30:00 UTC,2444881.020833,29.6650,-93.4789,0073,-4.39,-14.34,15.0000,197.0000
1981-10-03 13:00:00 UTC,2444881.041667,29.6650,-93.4789,0073,-4.56,-13.24,14.0000,199.0000
1981-10-03 13:30:00 UTC,2444881.062500,29.6650,-93.4789,0073,-4.45,-12.22,13.0000,200.0000
1981-10-03 14:00:00 UTC,2444881.083333,29.6650,-93.4789,0073,-4.10,-11.28,12.0000,200.0000
1981-10-03 14:30:00 UTC,2444881.104167,29.6650,-93.4789,0073,-3.91,-11.35,12.0000,199.0000
1981-10-03 15:00:00 UTC,2444881.125000,29.6650,-93.4789,0073,-4.10,-11.28,12.0000,200.0000
1981-10-03 15:30:00 UTC,2444881.145833,29.6650,-93.4789,0073,-4.50,-11.13,12.0000,202.0000
1981-10-03 16:00:00 UTC,2444881.166667,29.6650,-93.4789,0073,-4.88,-10.96,12.0000,204.0000
1981-10-03 16:30:00 UTC,2444881.187500,29.6650,-93.4789,0073,-7.27,-10.78,13.0000,214.0000
1981-10-03 17:00:00 UTC,2444881.208333,29.6650,-93.4789,0073,-10.57,-9.18,14.0000,229.0000
1981-10-03 17:30:00 UTC,2444881.229167,29.6650,-93.4789,0073,-15.28,-7.45,17.0000,244.0000
1981-10-03 18:00:00 UTC,2444881.250000,29.6650,-93.4789,0073,-18.44,-4.60,19.0000,256.0000
1981-10-03 18:30:00 UTC,2444881.270833,29.6650,-93.4789,0073,-21.88,-2.30,22.0000,264.0000
1981-10-03 19:00:00 UTC,2444881.291667,29.6650,-93.4789,0073,-23.00,-0.00,23.0000,270.0000
1981-10-03 19:30:00 UTC,2444881.312500,29.6650,-93.4789,0073,-22.94,1.60,23.0000,274.0000
1981-10-03 20:00:00 UTC,2444881.333333,29.6650,-93.4789,0073,-22.91,2.00,23.0000,275.0000
1981-10-03 20:30:00 UTC,2444881.354167,29.6650,-93.4789,0073,-21.99,0.77,22.0000,272.0000
1981-10-03 21:00:00 UTC,2444881.375000,29.6650,-93.4789,0073,-21.97,-1.15,22.0000,267.0000
1981-10-03 21:30:00 UTC,2444881.395833,29.6650,-93.4789,0073,-23.87,-2.51,24.0000,264.0000
1981-10-03 22:00:00 UTC,2444881.416667,29.6650,-93.4789,0073,-24.81,-3.05,25.0000,263.0000
1981-10-03 22:30:00 UTC,2444881.437500,29.6650,-93.4789,0073,-23.97,-1.26,24.0000,267.0000
1981-10-03 23:00:00 UTC,2444881.458333,29.6650,-93.4789,0073,-21.99,0.77,22.0000,272.0000
1981-10-03 23:30:00 UTC,2444881.479167,29.6650,-93.4789,0073,-19.92,1.74,20.0000,275.0000
1981-10-04 00:00:00 UTC,2444881.500000,29.6650,-93.4789,0073,-16.99,0.59,17.0000,272.0000
1981-10-04 00:30:00 UTC,2444881.520833,29.6650,-93.4789,0073,-15.76,-2.78,16.0000,260.0000
1981-10-04 01:00:00 UTC,2444881.541667,29.6650,-93.4789,0073,-14.00,-5.38,15.0000,249.0000
1981-10-04 01:30:00 UTC,2444881.562500,29.6650,-93.4789,0073,-12.24,-6.79,14.0000,241.0000
1981-10-04 02:00:00 UTC,2444881.583333,29.6650,-93.4789,0073,-9.19,-7.71,12.0000,230.0000
1981-10-04 02:30:00 UTC,2444881.604167,29.6650,-93.4789,0073,-7.07,-8.43,11.0000,220.0000
1981-10-04 03:00:00 UTC,2444881.625000,29.6650,-93.4789,0073,-7.19,-6.95,10.0000,226.0000
1981-10-04 03:30:00 UTC,2444881.645833,29.6650,-93.4789,0073,-8.00,-0.28,8.0000,268.0000
1981-10-04 04:00:00 UTC,2444881.666667,29.6650,-93.4789,0073,-8.09,5.88,10.0000,306.0000
1981-10-04 04:30:00 UTC,2444881.687500,29.6650,-93.4789,0073,-4.59,6.55,8.0000,325.0000
1981-10-04 05:00:00 UTC,2444881.708333,29.6650,-93.4789,0073,-1.17,3.83,4.0000,343.0000
1981-10-04 05:30:00 UTC,2444881.729167,29.6650,-93.4789,0073,-0.81,1.83,2.0000,336.0000
1981-10-04 06:00:00 UTC,2444881.750000,29.6650,-93.4789,0073,-2.49,1.68,3.0000,304.0000
1981-10-04 06:30:00 UTC,2444881.770833,29.6650,-93.4789,0073,-2.91,0.73,3.0000,284.0000
1981-10-04 07:00:00 UTC,2444881.791667,29.6650,-93.4789,0073,-3.96,0.56,4.0000,278.0000
1981-10-04 07:30:00 UTC,2444881.812500,29.6650,-93.4789,0073,-8.00,-0.14,8.0000,269.0000
1981-10-04 08:00:00 UTC,2444881.833333,29.6650,-93.4789,0073,-11.78,2.29,12.0000,281.0000
1981-10-04 08:30:00 UTC,2444881.854167,29.6650,-93.4789,0073,-14.72,8.50,17.0000,300.0000
1981-10-04 09:00:00 UTC,2444881.875000,29.6650,-93.4789,0073,-14.18,11.08,18.0000,308.0000
1981-10-04 09:30:00 UTC,2444881.895833,29.6650,-93.4789,0073,-14.18,11.08,18.0000,308.0000
1981-10-04 10:00:00 UTC,2444881.916667,29.6650,-93.4789,0073,-13.99,11.33,18.0000,309.0000
1981-10-04 10:30:00 UTC,2444881.937500,29.6650,-93.4789,0073,-14.12,12.71,19.0000,312.0000
1981-10-04 11:00:00 UTC,2444881.958333,29.6650,-93.4789,0073,-12.73,12.73,18.0000,315.0000
1981-10-04 11:30:00 UTC,2444881.979167,29.6650,-93.4789,0073,-11.70,10.91,16.0000,313.0000
1981-10-04 12:00:00 UTC,2444882.000000,29.6650,-93.4789,0073,-12.08,10.50,16.0000,311.0000
1981-10-04 12:30:00 UTC,2444882.020833,29.6650,-93.4789,0073,-12.26,10.28,16.0000,310.0000
1981-10-04 13:00:00 UTC,2444882.041667,29.6650,-93.4789,0073,-11.33,8.23,14.0000,306.0000
1981-10-04 13:30:00 UTC,2444882.062500,29.6650,-93.4789,0073,-10.90,7.08,13.0000,303.0000
1981-10-04 14:00:00 UTC,2444882.083333,29.6650,-93.4789,0073,-10.90,7.08,13.0000,303.0000
1981-10-04 14:30:00 UTC,2444882.104167,29.6650,-93.4789,0073,-12.00,7.21,14.0000,301.0000
1981-10-04 15:00:00 UTC,2444882.125000,29.6650,-93.4789,0073,-12.86,7.73,15.0000,301.0000
1981-10-04 15:30:00 UTC,2444882.145833,29.6650,-93.4789,0073,-12.72,7.95,15.0000,302.0000
1981-10-04 16:00:00 UTC,2444882.166667,29.6650,-93.4789,0073,-13.57,8.48,16.0000,302.0000
1981-10-04 16:30:00 UTC,2444882.187500,29.6650,-93.4789,0073,-12.44,8.39,15.0000,304.0000
1981-10-04 17:00:00 UTC,2444882.208333,29.6650,-93.4789,0073,-10.38,7.82,13.0000,307.0000
1981-10-04 17:30:00 UTC,2444882.229167,29.6650,-93.4789,0073,-10.10,8.18,13.0000,309.0000
1981-10-04 18:00:00 UTC,2444882.250000,29.6650,-93.4789,0073,-9.81,8.53,13.0000,311.0000
1981-10-04 18:30:00 UTC,2444882.270833,29.6650,-93.4789,0073,-9.81,8.53,13.0000,311.0000
1981-10-04 19:00:00 UTC,2444882.291667,29.6650,-93.4789,0073,-9.19,7.71,12.0000,310.0000
1981-10-04 19:30:00 UTC,2444882.312500,29.6650,-93.4789,0073,-8.90,6.47,11.0000,306.0000
1981-10-04 20:00:00 UTC,2444882.333333,29.6650,-93.4789,0073,-9.62,5.33,11.0000,299.0000
1981-10-04 20:30:00 UTC,2444882.354167,29.6650,-93.4789,0073,-10.20,4.12,11.0000,292.0000
1981-10-04 21:00:00 UTC,2444882.375000,29.6650,-93.4789,0073,-11.35,3.91,12.0000,289.0000
1981-10-04 21:30:00 UTC,2444882.395833,29.6650,-93.4789,0073,-11.48,3.51,12.0000,287.0000
1981-10-04 22:00:00 UTC,2444882.416667,29.6650,-93.4789,0073,-10.67,2.66,11.0000,284.0000
1981-10-04 22:30:00 UTC,2444882.437500,29.6650,-93.4789,0073,-10.92,1.34,11.0000,277.0000
1981-10-04 23:00:00 UTC,2444882.458333,29.6650,-93.4789,0073,-10.99,-0.38,11.0000,268.0000
1981-10-04 23:30:00 UTC,2444882.479167,29.6650,-93.4789,0073,-9.99,-0.52,10.0000,267.0000
1981-10-05 00:00:00 UTC,2444882.500000,29.6650,-93.4789,0073,-9.98,-0.70,10.0000,266.0000
1981-10-05 00:30:00 UTC,2444882.520833,29.6650,-93.4789,0073,-9.85,-1.74,10.0000,260.0000
1981-10-05 01:00:00 UTC,2444882.541667,29.6650,-93.4789,0073,-8.95,-0.94,9.0000,264.0000
1981-10-05 01:30:00 UTC,2444882.562500,29.6650,-93.4789,0073,-9.00,0.16,9.0000,271.0000
1981-10-05 02:00:00 UTC,2444882.583333,29.6650,-93.4789,0073,-7.96,-0.84,8.0000,264.0000
1981-10-05 02:30:00 UTC,2444882.604167,29.6650,-93.4789,0073,-6.29,-3.07,7.0000,244.0000
1981-10-05 03:00:00 UTC,2444882.625000,29.6650,-93.4789,0073,-5.36,-4.50,7.0000,230.0000
1981-10-05 03:30:00 UTC,2444882.645833,29.6650,-93.4789,0073,-5.20,-4.68,7.0000,228.0000
1981-10-05 04:00:00 UTC,2444882.666667,29.6650,-93.4789,0073,-5.66,-4.11,7.0000,234.0000
1981-10-05 04:30:00 UTC,2444882.687500,29.6650,-93.4789,0073,-5.56,-2.25,6.0000,248.0000
1981-10-05 05:00:00 UTC,2444882.708333,29.6650,-93.4789,0073,-5.71,-1.85,6.0000,252.0000
1981-10-05 05:30:00 UTC,2444882.729167,29.6650,-93.4789,0073,-6.00,-3.61,7.0000,239.0000
1981-10-05 06:00:00 UTC,2444882.750000,29.6650,-93.4789,0073,-4.77,-5.12,7.0000,223.0000
1981-10-05 06:30:00 UTC,2444882.770833,29.6650,-93.4789,0073,-3.09,-5.14,6.0000,211.0000
1981-10-05 07:00:00 UTC,2444882.791667,29.6650,-93.4789,0073,-2.25,-5.56,6.0000,202.0000
1981-10-05 07:30:00 UTC,2444882.812500,29.6650,-93.4789,0073,-2.05,-5.64,6.0000,200.0000
1981-10-05 08:00:00 UTC,2444882.833333,29.6650,-93.4789,0073,-2.74,-6.44,7.0000,203.0000
1981-10-05 08:30:00 UTC,2444882.854167,29.6650,-93.4789,0073,-2.74,-6.44,7.0000,203.0000
1981-10-05 09:00:00 UTC,2444882.875000,29.6650,-93.4789,0073,-2.34,-5.52,6.0000,203.0000
1981-10-05 09:30:00 UTC,2444882.895833,29.6650,-93.4789,0073,-0.95,-4.91,5.0000,191.0000
1981-10-05 10:00:00 UTC,2444882.916667,29.6650,-93.4789,0073,0.00,-6.00,6.0000,180.0000
1981-10-05 10:30:00 UTC,2444882.937500,29.6650,-93.4789,0073,-0.61,-6.97,7.0000,185.0000
1981-10-05 11:00:00 UTC,2444882.958333,29.6650,-93.4789,0073,-1.46,-4.78,5.0000,197.0000
1981-10-05 11:30:00 UTC,2444882.979167,29.6650,-93.4789,0073,-2.88,-2.78,4.0000,226.0000
1981-10-05 12:00:00 UTC,2444883.000000,29.6650,-93.4789,0073,-5.00,0.17,5.0000,272.0000